User: anonymous   Login
Location: Stillwell
(40.4602°N, 82.0928°W)
Time: 08:34:53
(UTC-05:00)
Language:

Cosmos 2333 Rocket - Orbit

View from above orbital plane
View from above orbital plane
View from above satellite
View from above satellite

Ground track
Ground track

The orbit data is extracted from the following two-line orbital elements,

1 24298U 96051B   18049.95222079 -.00000122 +00000-0 -39771-4 0  9992
2 24298 070.8402 262.0309 0016552 184.1229 175.9758 14.12465746106409
Epoch (UTC): 18 February 2018 22:51:11
Eccentricity: 0.0016552
inclination: 70.8402°
perigee height: 839 km
apogee height: 863 km
right ascension of ascending node: 262.0309°
argument of perigee: 184.1229°
revolutions per day: 14.12465746
mean anomaly at epoch: 175.9758°
orbit number at epoch: 10640

The dashed part of the orbit path shows where the satellite is in the earth's shadow,  

DLR